Flag for U.S.A. Weather past 2 weeks in Chico, California, U.S.A.

Now
66 °F

Passing clouds.


Feels Like: 66 °F
Forecast: 53 / 77 °F
Wind: 6 mph from North

Location: Chico Municipal

Current Time: May 6, 2015 at 11:34:58 AM

Latest Report: May 6, 2015 at 10:50 AM


Visibility: 40 mi

Pressure: 29.84 "Hg

Humidity: 35%

Dew point: 37 °F

Location of ChicoLocation

Historic Weather in Chico — Graph

°F

Chico temperature yesterday

Maximum temperature yesterday: 77 °F (at 3:53 PM)
Minimum temperature yesterday: 54 °F (at 5:15 AM)
Average temperature yesterday: 64 °F

Past Weeks' High & Low Weather Summary

 TemperatureHumidityPressure
High90 °F (Apr 30, 3:49 PM)100% (Apr 25, 12:15 AM)30.14 "Hg (Apr 25, 12:15 AM)
Low48 °F (Apr 26, 6:50 AM)13% (Apr 30, 3:49 PM)29.71 "Hg (Apr 23, 5:55 PM)
Average66 °F53%29.87 "Hg
* Reported Apr 21 9:55 AM — May 6 9:50 AM, Chico, Weather by CustomWeather, © 2015

Note: Actual official high and low records may vary slightly from our data, if they occured in-between our weather recording intervals... More about our weather records

Advertising

Chico weather history for previous 24 hours

 ConditionsComfort  
Time TempWeatherWind HumidityBarometerVisibility
9:50 AM
Wed, May 6
63 °FPassing clouds.6 mph52%29.85 "Hg40 mi
8:50 AM59 °FScattered clouds.6 mph63%29.85 "Hg40 mi
7:50 AM57 °FBroken clouds.6 mph67%29.85 "Hg40 mi
6:50 AM55 °FPartly cloudy.6 mph72%29.85 "Hg10 mi
6:35 AM55 °FPassing clouds.No wind72%29.85 "Hg10 mi
6:15 AM55 °FPassing clouds.6 mph77%29.85 "Hg10 mi
5:55 AM55 °FPassing clouds.No wind77%29.85 "Hg10 mi
5:35 AM55 °FPassing clouds.No wind77%29.85 "Hg10 mi
5:15 AM57 °FMostly cloudy.No wind72%29.85 "Hg10 mi
4:55 AM57 °FMostly cloudy.No wind77%29.85 "Hg10 mi
4:35 AM59 °FMostly cloudy.No wind72%29.84 "Hg10 mi
4:15 AM59 °FOvercast.No wind72%29.84 "Hg10 mi
3:55 AM59 °FOvercast.No wind72%29.84 "Hg10 mi
3:35 AM59 °FMostly cloudy.No wind72%29.84 "Hg10 mi
3:15 AM61 °FOvercast.No wind68%29.84 "Hg10 mi
2:55 AM61 °FOvercast.No wind68%29.84 "Hg10 mi
2:35 AM63 °FOvercast.No wind64%29.84 "Hg10 mi
2:15 AM63 °FOvercast.No wind59%29.84 "Hg10 mi
1:55 AM63 °FOvercast.No wind59%29.84 "Hg10 mi
1:35 AM63 °FOvercast.No wind59%29.84 "Hg10 mi
1:15 AM61 °FPassing clouds.No wind59%29.84 "Hg10 mi
12:55 AM63 °FPassing clouds.No wind59%29.83 "Hg10 mi
12:35 AM64 °FPassing clouds.7 mph56%29.83 "Hg10 mi
12:15 AM66 °FPassing clouds.8 mph52%29.83 "Hg10 mi
11:55 PM
Tue, May 5
66 °FPassing clouds.7 mph52%29.83 "Hg10 mi
11:35 PM66 °FClear.6 mph52%29.83 "Hg10 mi
11:15 PM66 °FClear.6 mph49%29.82 "Hg10 mi
10:55 PM66 °FClear.No wind49%29.82 "Hg10 mi
10:35 PM66 °FClear.No wind49%29.82 "Hg10 mi
10:15 PM66 °FClear.No wind49%29.82 "Hg10 mi
9:55 PM70 °FClear.No wind43%29.81 "Hg10 mi
9:35 PM72 °FClear.No wind41%29.81 "Hg10 mi
9:15 PM72 °FClear.3 mph38%29.81 "Hg10 mi
8:55 PM72 °FSunny.6 mph38%29.80 "Hg10 mi
7:55 PM73 °FSunny.No wind36%29.79 "Hg10 mi
7:35 PM75 °FSunny.7 mph31%29.78 "Hg10 mi
7:15 PM75 °FSunny.8 mph29%29.78 "Hg10 mi
6:55 PM77 °FSunny.12 mph28%29.78 "Hg10 mi
5:59 PM77 °FPartly sunny.10 mph32%29.79 "Hg10 mi
4:50 PM77 °FPartly sunny.8 mph34%29.81 "Hg10 mi
3:53 PM77 °FPartly sunny.6 mph34%29.83 "Hg10 mi
1:47 PM73 °FPartly sunny.6 mph41%29.87 "Hg10 mi
12:50 PM70 °FPartly sunny.6 mph46%29.89 "Hg10 mi
11:47 AM66 °FScattered clouds.6 mph52%29.91 "Hg10 mi
Weather by CustomWeather, © 2015

See weather overviewHow to use our weather pages